Regional Weather Roundup
Issued by NWS

Home | Current Version | Previous Version | Text Only | Print | Product List | Glossary Off
Versions: 1 2 3 4 5 6 7 8 9 10 11 12 13 14 15 16 17 18 19 20 21 22 23 24 25 26 27

000
ASUS45 KBOI 270410
RWRID

IDAHO REGIONAL WEATHER ROUNDUP
NATIONAL WEATHER SERVICE BOISE ID
1000 PM MDT TUE JUL 26 2016

NOTE: "FAIR" INDICATES FEW OR NO CLOUDS BELOW 12000 FEET
WITH NO SIGNIFICANT WEATHER AND/OR OBSTRUCTIONS TO VISIBILITY

IDZ012-014-270500-
SOUTHWEST IDAHO


CITY           SKY/WX    TMP DP  RH WIND       PRES   REMARKS
BOISE          CLEAR     88  43  20 NE6       29.92R
CALDWELL       CLEAR     85  53  33 W3        29.90R
MOUNTAIN HOME  CLEAR     89  39  17 N6        29.93R
$$

IDZ016-017-270500-
SOUTHCENTRAL IDAHO


CITY           SKY/WX    TMP DP  RH WIND       PRES   REMARKS
BURLEY         CLEAR     66  50  56 SW7       30.02R
JEROME         CLEAR     79  43  27 W3        30.02R
TWIN FALLS     CLEAR     76  39  26 SW9       30.03R
$$

IDZ019>023-270500-
SOUTHEAST IDAHO


CITY           SKY/WX    TMP DP  RH WIND       PRES   REMARKS
IDAHO FALLS    CLEAR     64  47  53 N12       30.11R
POCATELLO      CLEAR     72  40  31 N6        30.06R
REXBURG        CLEAR     72  43  35 NE7       30.12R
$$

IDZ006-010-011-018-031-032-270500-
CENTRAL IDAHO MOUNTAINS


CITY           SKY/WX    TMP DP  RH WIND       PRES   REMARKS
MCCALL         CLEAR     76  44  32 NE8       30.13R
HAILEY         CLEAR     75  41  29 NW6       30.13R
STANLEY          N/A     62  36  37 CALM      30.23R
SALMON         CLOUDY    63  48  59 SE5       30.11R
CHALLIS        PTCLDY    68  41  37 CALM      30.14R
$$

IDZ002-004-006-007-026-270500-
NORTHERN IDAHO


CITY           SKY/WX    TMP DP  RH WIND       PRES   REMARKS
LEWISTON       CLEAR     89  51  27 W5        29.92R
LOWELL           N/A     71  59  65 CALM      29.94R
COEUR D`ALENE  PTCLDY    75  52  43 N14       29.99R
MULLAN PASS    CLEAR     65  45  48 CALM      30.24R
$$




USA.gov is the U.S. government's official web portal to all federal, state and local government web resources and services.